| time (UTC) | temp F | wind direction | speed MPH | gust MPH | rain 1hr in | rain 24hr in | rain mn in | humidity % | barometer mb |
| 20260509034539 | 55 | 278 | 0.0 | 1.0 | 0.00 | 0.00 | 0.00 | 40 | 1003.0 |
| 20260509034038 | 56 | 278 | 0.0 | 1.0 | 0.00 | 0.00 | 0.00 | 41 | 1003.0 |
| 20260509033538 | 56 | 278 | 0.0 | 1.0 | 0.00 | 0.00 | 0.00 | 37 | 1002.9 |
| 20260509033037 | 56 | 278 | 1.0 | 4.0 | 0.00 | 0.00 | 0.00 | 37 | 1003.0 |
| 20260509032534 | 56 | 279 | 2.0 | 4.0 | 0.00 | 0.00 | 0.00 | 35 | 1002.9 |
| 20260509032034 | 56 | 277 | 2.0 | 4.0 | 0.00 | 0.00 | 0.00 | 35 | 1003.1 |
| 20260509031034 | 57 | 299 | 3.0 | 7.0 | 0.00 | 0.00 | 0.00 | 35 | 1003.1 |
| 20260509030534 | 57 | 309 | 3.0 | 9.0 | 0.00 | 0.00 | 0.00 | 34 | 1003.1 |
| 20260509030031 | 57 | 295 | 4.0 | 9.0 | 0.00 | 0.00 | 0.00 | 34 | 1003.0 |
| 20260509025030 | 57 | 307 | 5.0 | 10.0 | 0.00 | 0.00 | 0.00 | 34 | 1002.9 |
| 20260509024529 | 58 | 268 | 6.0 | 10.0 | 0.00 | 0.00 | 0.00 | 34 | 1002.9 |
| 20260509024030 | 58 | 310 | 6.0 | 10.0 | 0.00 | 0.00 | 0.00 | 34 | 1002.9 |
| 20260509023529 | 58 | 293 | 5.0 | 9.0 | 0.00 | 0.00 | 0.00 | 33 | 1002.8 |
| 20260509023030 | 58 | 304 | 6.0 | 12.0 | 0.00 | 0.00 | 0.00 | 33 | 1002.8 |
| 20260509022526 | 58 | 297 | 6.0 | 12.0 | 0.00 | 0.00 | 0.00 | 33 | 1002.8 |
| 20260509022020 | 59 | 288 | 6.0 | 12.0 | 0.00 | 0.00 | 0.00 | 32 | 1002.8 |
| 20260509021515 | 59 | 265 | 7.0 | 12.0 | 0.00 | 0.00 | 0.00 | 32 | 1002.7 |
| 20260509021009 | 59 | 261 | 7.0 | 13.0 | 0.00 | 0.00 | 0.00 | 32 | 1002.6 |
| 20260509020509 | 59 | 296 | 7.0 | 13.0 | 0.00 | 0.00 | 0.00 | 32 | 1002.6 |
| 20260509020009 | 60 | 286 | 7.0 | 12.0 | 0.00 | 0.00 | 0.00 | 32 | 1002.5 |
| 20260509014509 | 60 | 296 | 9.0 | 17.0 | 0.00 | 0.00 | 0.00 | 31 | 1002.3 |
| 20260509014007 | 61 | 281 | 9.0 | 17.0 | 0.00 | 0.00 | 0.00 | 31 | 1002.3 |
| 20260509013509 | 61 | 302 | 10.0 | 18.0 | 0.00 | 0.00 | 0.00 | 30 | 1002.1 |
| 20260509013005 | 61 | 301 | 11.0 | 18.0 | 0.00 | 0.00 | 0.00 | 30 | 1002.1 |
| 20260509012505 | 61 | 306 | 9.0 | 18.0 | 0.00 | 0.00 | 0.00 | 30 | 1002.1 |
| 20260509012003 | 62 | 309 | 9.0 | 15.0 | 0.00 | 0.00 | 0.00 | 30 | 1002.0 |
| 20260509011502 | 62 | 282 | 11.0 | 20.0 | 0.00 | 0.00 | 0.00 | 30 | 1001.9 |
| 20260509011002 | 62 | 300 | 13.0 | 23.0 | 0.00 | 0.00 | 0.00 | 30 | 1001.9 |
| 20260509010500 | 63 | 286 | 13.0 | 25.0 | 0.00 | 0.00 | 0.00 | 30 | 1001.8 |
| 20260509010002 | 63 | 279 | 14.0 | 26.0 | 0.00 | 0.00 | 0.00 | 31 | 1002.0 |
| 20260509005501 | 64 | 301 | 14.0 | 26.0 | 0.00 | 0.00 | 0.00 | 31 | 1001.9 |
| 20260509005001 | 64 | 310 | 13.0 | 25.0 | 0.00 | 0.00 | 0.00 | 31 | 1001.7 |
| 20260509004501 | 65 | 315 | 14.0 | 25.0 | 0.00 | 0.00 | 0.00 | 31 | 1001.5 |
| 20260509004004 | 65 | 280 | 12.0 | 23.0 | 0.00 | 0.00 | 0.00 | 31 | 1001.4 |
| 20260509003503 | 66 | 303 | 10.0 | 19.0 | 0.00 | 0.00 | 0.00 | 31 | 1001.4 |
| 20260509001502 | 67 | 298 | 12.0 | 25.0 | 0.00 | 0.00 | 0.00 | 28 | 1001.2 |
| 20260509001002 | 67 | 267 | 10.0 | 17.0 | 0.00 | 0.00 | 0.00 | 26 | 1001.1 |
| 20260509000502 | 68 | 268 | 10.0 | 18.0 | 0.00 | 0.00 | 0.00 | 26 | 1001.0 |
| 20260508235002 | 68 | 257 | 11.0 | 23.0 | 0.00 | 0.00 | 0.00 | 25 | 1001.1 |
| 20260508234501 | 68 | 295 | 12.0 | 23.0 | 0.00 | 0.00 | 0.00 | 25 | 1001.0 |
| 20260508233502 | 68 | 288 | 10.0 | 19.0 | 0.00 | 0.00 | 0.00 | 24 | 1001.0 |
| 20260508233002 | 68 | 262 | 11.0 | 21.0 | 0.00 | 0.00 | 0.00 | 25 | 1001.1 |
| 20260508232501 | 68 | 276 | 11.0 | 21.0 | 0.00 | 0.00 | 0.00 | 24 | 1001.0 |
| 20260508232001 | 68 | 292 | 11.0 | 22.0 | 0.00 | 0.00 | 0.00 | 24 | 1001.1 |
| 20260508230954 | 69 | 279 | 10.0 | 19.0 | 0.00 | 0.00 | 0.00 | 23 | 1001.1 |
| 20260508225437 | 69 | 259 | 11.0 | 21.0 | 0.00 | 0.00 | 0.00 | 23 | 1001.1 |
| 20260508224931 | 69 | 282 | 12.0 | 21.0 | 0.00 | 0.00 | 0.00 | 23 | 1001.2 |
| 20260508224433 | 69 | 299 | 10.0 | 21.0 | 0.00 | 0.00 | 0.00 | 24 | 1001.1 |
| 20260508223432 | 69 | 253 | 12.0 | 27.0 | 0.00 | 0.00 | 0.00 | 23 | 1001.2 |
| 20260508222933 | 69 | 271 | 11.0 | 24.0 | 0.00 | 0.00 | 0.00 | 23 | 1001.3 |
| 20260508222432 | 69 | 308 | 8.0 | 24.0 | 0.00 | 0.00 | 0.00 | 23 | 1001.1 |
| 20260508221433 | 69 | 299 | 10.0 | 20.0 | 0.00 | 0.00 | 0.00 | 24 | 1001.4 |
| 20260508220932 | 69 | 263 | 11.0 | 20.0 | 0.00 | 0.00 | 0.00 | 24 | 1001.4 |
| 20260508220431 | 69 | 286 | 11.0 | 25.0 | 0.00 | 0.00 | 0.00 | 24 | 1001.3 |
| 20260508215931 | 69 | 269 | 12.0 | 25.0 | 0.00 | 0.00 | 0.00 | 23 | 1001.5 |
| 20260508214932 | 69 | 259 | 9.0 | 18.0 | 0.00 | 0.00 | 0.00 | 24 | 1001.7 |
| 20260508214431 | 69 | 267 | 10.0 | 19.0 | 0.00 | 0.00 | 0.00 | 24 | 1001.6 |
| 20260508213931 | 68 | 217 | 10.0 | 19.0 | 0.00 | 0.00 | 0.00 | 24 | 1001.6 |
| 20260508213429 | 69 | 276 | 9.0 | 17.0 | 0.00 | 0.00 | 0.00 | 24 | 1001.7 |
| 20260508212930 | 68 | 262 | 10.0 | 17.0 | 0.00 | 0.00 | 0.00 | 24 | 1001.9 |
| 20260508212432 | 69 | 259 | 9.0 | 17.0 | 0.00 | 0.00 | 0.00 | 24 | 1001.9 |
| 20260508211930 | 69 | 242 | 9.0 | 19.0 | 0.00 | 0.00 | 0.00 | 24 | 1001.9 |
| 20260508211431 | 69 | 255 | 11.0 | 21.0 | 0.00 | 0.00 | 0.00 | 25 | 1002.0 |
| 20260508210932 | 69 | 223 | 11.0 | 21.0 | 0.00 | 0.00 | 0.00 | 24 | 1001.9 |
| 20260508210431 | 68 | 262 | 10.0 | 19.0 | 0.00 | 0.00 | 0.00 | 25 | 1002.1 |
| 20260508205931 | 68 | 209 | 9.0 | 19.0 | 0.00 | 0.00 | 0.00 | 25 | 1002.3 |
| 20260508205430 | 68 | 277 | 10.0 | 19.0 | 0.00 | 0.00 | 0.00 | 25 | 1002.2 |
| 20260508204929 | 68 | 231 | 11.0 | 28.0 | 0.00 | 0.00 | 0.00 | 24 | 1002.3 |
| 20260508203931 | 68 | 234 | 7.0 | 17.0 | 0.00 | 0.00 | 0.00 | 25 | 1002.6 |
| 20260508203429 | 68 | 186 | 7.0 | 15.0 | 0.00 | 0.00 | 0.00 | 25 | 1002.6 |
| 20260508202929 | 67 | 198 | 9.0 | 14.0 | 0.00 | 0.00 | 0.00 | 25 | 1002.7 |
| 20260508202430 | 68 | 242 | 12.0 | 24.0 | 0.00 | 0.00 | 0.00 | 25 | 1002.9 |
| 20260508201931 | 68 | 299 | 10.0 | 24.0 | 0.00 | 0.00 | 0.00 | 25 | 1002.9 |
| 20260508201428 | 68 | 273 | 9.0 | 19.0 | 0.00 | 0.00 | 0.00 | 25 | 1003.0 |
| 20260508200931 | 67 | 296 | 8.0 | 19.0 | 0.00 | 0.00 | 0.00 | 25 | 1003.2 |
| 20260508195430 | 66 | 253 | 10.0 | 18.0 | 0.00 | 0.00 | 0.00 | 26 | 1003.2 |
| 20260508194430 | 66 | 296 | 13.0 | 26.0 | 0.00 | 0.00 | 0.00 | 26 | 1003.6 |
| 20260508193930 | 66 | 289 | 10.0 | 23.0 | 0.00 | 0.00 | 0.00 | 26 | 1003.6 |
| 20260508193431 | 66 | 272 | 6.0 | 21.0 | 0.00 | 0.00 | 0.00 | 25 | 1003.8 |
| 20260508192929 | 65 | 293 | 5.0 | 13.0 | 0.00 | 0.00 | 0.00 | 27 | 1003.9 |
| 20260508191929 | 64 | 227 | 9.0 | 16.0 | 0.00 | 0.00 | 0.00 | 28 | 1004.1 |
| 20260508191432 | 64 | 294 | 7.0 | 14.0 | 0.00 | 0.00 | 0.00 | 27 | 1004.2 |
| 20260508190429 | 64 | 340 | 9.0 | 15.0 | 0.00 | 0.00 | 0.00 | 27 | 1004.3 |
| 20260508185428 | 65 | 309 | 11.0 | 35.0 | 0.00 | 0.00 | 0.00 | 27 | 1004.4 |
| 20260508184930 | 65 | 259 | 8.0 | 16.0 | 0.00 | 0.00 | 0.00 | 27 | 1004.4 |
| 20260508184430 | 65 | 244 | 7.0 | 15.0 | 0.00 | 0.00 | 0.00 | 28 | 1004.4 |
| 20260508183929 | 65 | 236 | 5.0 | 11.0 | 0.00 | 0.00 | 0.00 | 27 | 1004.6 |
| 20260508183435 | 63 | 220 | 6.0 | 15.0 | 0.00 | 0.00 | 0.00 | 29 | 1004.6 |
| 20260508182932 | 63 | 254 | 7.0 | 15.0 | 0.00 | 0.00 | 0.00 | 28 | 1004.7 |
| 20260508182432 | 64 | 234 | 7.0 | 16.0 | 0.00 | 0.00 | 0.00 | 28 | 1004.8 |
| 20260508181930 | 63 | 264 | 6.0 | 16.0 | 0.00 | 0.00 | 0.00 | 28 | 1004.7 |
| 20260508180929 | 63 | 277 | 7.0 | 18.0 | 0.00 | 0.00 | 0.00 | 28 | 1004.9 |
| 20260508180431 | 63 | 250 | 7.0 | 18.0 | 0.00 | 0.00 | 0.00 | 28 | 1005.2 |
| 20260508175929 | 63 | 237 | 6.0 | 14.0 | 0.00 | 0.00 | 0.00 | 29 | 1005.2 |
| 20260508175429 | 63 | 309 | 6.0 | 13.0 | 0.00 | 0.00 | 0.00 | 29 | 1005.3 |
| 20260508174430 | 63 | 273 | 9.0 | 15.0 | 0.00 | 0.00 | 0.00 | 27 | 1005.4 |
| 20260508173930 | 64 | 291 | 7.0 | 16.0 | 0.00 | 0.00 | 0.00 | 28 | 1005.4 |
| 20260508172926 | 64 | 230 | 7.0 | 15.0 | 0.00 | 0.00 | 0.00 | 28 | 1005.5 |
| 20260508172426 | 64 | 304 | 8.0 | 15.0 | 0.00 | 0.00 | 0.00 | 28 | 1005.6 |
| 20260508171927 | 63 | 331 | 7.0 | 17.0 | 0.00 | 0.00 | 0.00 | 28 | 1005.5 |
| 20260508171427 | 63 | 236 | 6.0 | 17.0 | 0.00 | 0.00 | 0.00 | 28 | 1005.6 |
| 20260508170925 | 63 | 248 | 4.0 | 15.0 | 0.00 | 0.00 | 0.00 | 29 | 1005.7 |
| 20260508170425 | 63 | 325 | 3.0 | 15.0 | 0.00 | 0.00 | 0.00 | 29 | 1005.7 |
| 20260508165925 | 63 | 355 | 4.0 | 12.0 | 0.00 | 0.00 | 0.00 | 29 | 1005.8 |
| 20260508165424 | 62 | 340 | 6.0 | 14.0 | 0.00 | 0.00 | 0.00 | 28 | 1005.8 |
| 20260508164926 | 63 | 246 | 6.0 | 14.0 | 0.00 | 0.00 | 0.00 | 29 | 1005.9 |
| 20260508164426 | 62 | 232 | 5.0 | 14.0 | 0.00 | 0.00 | 0.00 | 30 | 1005.9 |
| 20260508163926 | 63 | 312 | 4.0 | 12.0 | 0.00 | 0.00 | 0.00 | 31 | 1006.0 |
| 20260508162926 | 61 | 284 | 4.0 | 11.0 | 0.00 | 0.00 | 0.00 | 32 | 1006.1 |
| 20260508161924 | 62 | 265 | 3.0 | 9.0 | 0.00 | 0.00 | 0.00 | 34 | 1006.1 |
| 20260508161426 | 61 | 223 | 2.0 | 6.0 | 0.00 | 0.00 | 0.00 | 34 | 1006.2 |
| 20260508160925 | 61 | 199 | 1.0 | 5.0 | 0.00 | 0.00 | 0.00 | 36 | 1006.2 |
| 20260508160424 | 60 | 159 | 2.0 | 5.0 | 0.00 | 0.00 | 0.00 | 37 | 1006.3 |
| 20260508155925 | 59 | 185 | 2.0 | 5.0 | 0.00 | 0.00 | 0.00 | 38 | 1006.3 |
| 20260508155425 | 58 | 275 | 2.0 | 5.0 | 0.00 | 0.00 | 0.00 | 39 | 1006.4 |
| 20260508154426 | 58 | 355 | 2.0 | 5.0 | 0.00 | 0.00 | 0.00 | 38 | 1006.6 |
| 20260508153425 | 57 | 190 | 2.0 | 5.0 | 0.00 | 0.00 | 0.00 | 42 | 1006.7 |
| 20260508152926 | 56 | 213 | 3.0 | 7.0 | 0.00 | 0.00 | 0.00 | 44 | 1006.7 |
| 20260508152427 | 55 | 252 | 4.0 | 8.0 | 0.00 | 0.00 | 0.00 | 44 | 1006.8 |
| 20260508151923 | 54 | 306 | 3.0 | 8.0 | 0.00 | 0.00 | 0.00 | 45 | 1006.9 |
| 20260508151423 | 54 | 259 | 4.0 | 9.0 | 0.00 | 0.00 | 0.00 | 45 | 1006.9 |
| 20260508150423 | 54 | 229 | 5.0 | 11.0 | 0.00 | 0.00 | 0.00 | 44 | 1006.9 |
| 20260508145923 | 54 | 292 | 5.0 | 11.0 | 0.00 | 0.00 | 0.00 | 44 | 1007.0 |
| 20260508145422 | 54 | 207 | 4.0 | 10.0 | 0.00 | 0.00 | 0.00 | 44 | 1007.0 |
| 20260508144922 | 54 | 267 | 4.0 | 10.0 | 0.00 | 0.00 | 0.00 | 45 | 1007.1 |
| 20260508144425 | 53 | 206 | 5.0 | 11.0 | 0.00 | 0.00 | 0.00 | 47 | 1007.2 |
| 20260508143924 | 52 | 244 | 6.0 | 11.0 | 0.00 | 0.00 | 0.00 | 49 | 1007.2 |
| 20260508143417 | 52 | 235 | 7.0 | 12.0 | 0.00 | 0.00 | 0.00 | 50 | 1007.2 |
| 20260508142917 | 51 | 222 | 7.0 | 12.0 | 0.00 | 0.00 | 0.00 | 50 | 1007.2 |
| 20260508142417 | 51 | 224 | 5.0 | 12.0 | 0.00 | 0.00 | 0.00 | 50 | 1007.3 |
| 20260508141916 | 51 | 217 | 3.0 | 11.0 | 0.00 | 0.00 | 0.00 | 53 | 1007.2 |
| 20260508141416 | 50 | 215 | 3.0 | 8.0 | 0.00 | 0.00 | 0.00 | 53 | 1007.1 |
| 20260508140414 | 49 | 243 | 2.0 | 6.0 | 0.00 | 0.00 | 0.00 | 55 | 1007.0 |
| 20260508135911 | 48 | 242 | 1.0 | 3.0 | 0.00 | 0.00 | 0.00 | 60 | 1007.2 |
| 20260508135412 | 47 | 31 | 0.0 | 3.0 | 0.00 | 0.00 | 0.00 | 63 | 1007.2 |
| 20260508134910 | 46 | 299 | 1.0 | 3.0 | 0.00 | 0.00 | 0.00 | 65 | 1007.3 |
| 20260508134407 | 45 | 288 | 1.0 | 4.0 | 0.00 | 0.00 | 0.00 | 65 | 1007.4 |
| 20260508133905 | 44 | 275 | 2.0 | 5.0 | 0.00 | 0.00 | 0.00 | 66 | 1007.5 |
| 20260508132902 | 43 | 193 | 1.0 | 3.0 | 0.00 | 0.00 | 0.00 | 70 | 1007.7 |
| 20260508131903 | 42 | 200 | 0.0 | 2.0 | 0.00 | 0.00 | 0.00 | 73 | 1007.7 |
| 20260508131403 | 41 | 260 | 0.0 | 2.0 | 0.00 | 0.00 | 0.00 | 75 | 1007.7 |
| 20260508130401 | 40 | 310 | 0.0 | 1.0 | 0.00 | 0.00 | 0.00 | 76 | 1007.7 |
| 20260508125903 | 39 | 310 | 0.0 | 1.0 | 0.00 | 0.00 | 0.00 | 78 | 1007.8 |
| 20260508125359 | 39 | 311 | 0.0 | 1.0 | 0.00 | 0.00 | 0.00 | 80 | 1007.8 |
| 20260508124854 | 38 | 311 | 0.0 | 1.0 | 0.00 | 0.00 | 0.00 | 81 | 1007.8 |
| 20260508124347 | 38 | 311 | 0.0 | 1.0 | 0.00 | 0.00 | 0.00 | 81 | 1007.8 |
| 20260508123336 | 38 | 311 | 0.0 | 0.0 | 0.00 | 0.00 | 0.00 | 82 | 1007.7 |
| 20260508122836 | 38 | 311 | 0.0 | 0.0 | 0.00 | 0.00 | 0.00 | 82 | 1007.7 |
| 20260508122334 | 37 | 311 | 0.0 | 0.0 | 0.00 | 0.00 | 0.00 | 83 | 1007.7 |
| 20260508121836 | 37 | 311 | 0.0 | 0.0 | 0.00 | 0.00 | 0.00 | 83 | 1007.7 |
| 20260508121336 | 36 | 311 | 0.0 | 0.0 | 0.00 | 0.00 | 0.00 | 83 | 1007.6 |
| 20260508120835 | 36 | 311 | 0.0 | 0.0 | 0.00 | 0.00 | 0.00 | 83 | 1007.5 |
| 20260508120334 | 36 | 311 | 0.0 | 0.0 | 0.00 | 0.00 | 0.00 | 83 | 1007.5 |
| 20260508115833 | 36 | 310 | 0.0 | 0.0 | 0.00 | 0.00 | 0.00 | 83 | 1007.5 |
| 20260508114830 | 35 | 311 | 0.0 | 0.0 | 0.00 | 0.00 | 0.00 | 84 | 1007.5 |
| 20260508113830 | 35 | 310 | 0.0 | 1.0 | 0.00 | 0.00 | 0.00 | 84 | 1007.4 |
| 20260508113330 | 35 | 311 | 0.0 | 1.0 | 0.00 | 0.00 | 0.00 | 85 | 1007.4 |
| 20260508112830 | 35 | 311 | 0.0 | 1.0 | 0.00 | 0.00 | 0.00 | 84 | 1007.5 |
| 20260508112329 | 34 | 310 | 0.0 | 1.0 | 0.00 | 0.00 | 0.00 | 85 | 1007.5 |
| 20260508111830 | 34 | 310 | 0.0 | 1.0 | 0.00 | 0.00 | 0.00 | 84 | 1007.4 |
| 20260508111331 | 34 | 311 | 0.0 | 1.0 | 0.00 | 0.00 | 0.00 | 84 | 1007.4 |
| 20260508110329 | 34 | 311 | 0.0 | 0.0 | 0.00 | 0.00 | 0.00 | 85 | 1007.4 |
| 20260508105828 | 34 | 310 | 0.0 | 1.0 | 0.00 | 0.00 | 0.00 | 85 | 1007.4 |
| 20260508104830 | 34 | 310 | 0.0 | 0.0 | 0.00 | 0.00 | 0.00 | 85 | 1007.4 |
| 20260508103830 | 34 | 311 | 0.0 | 1.0 | 0.00 | 0.00 | 0.00 | 85 | 1007.5 |
| 20260508103330 | 33 | 310 | 0.0 | 1.0 | 0.00 | 0.00 | 0.00 | 84 | 1007.5 |
| 20260508102330 | 34 | 311 | 0.0 | 1.0 | 0.00 | 0.00 | 0.00 | 84 | 1007.7 |
| 20260508101829 | 34 | 311 | 0.0 | 1.0 | 0.00 | 0.00 | 0.00 | 83 | 1007.6 |
| 20260508100830 | 34 | 310 | 0.0 | 2.0 | 0.00 | 0.00 | 0.00 | 82 | 1007.8 |
| 20260508100329 | 34 | 308 | 0.0 | 2.0 | 0.00 | 0.00 | 0.00 | 82 | 1007.7 |
| 20260508095829 | 34 | 306 | 0.0 | 0.0 | 0.00 | 0.00 | 0.00 | 82 | 1007.9 |
| 20260508095330 | 34 | 306 | 0.0 | 0.0 | 0.00 | 0.00 | 0.00 | 82 | 1007.8 |
| 20260508094828 | 34 | 306 | 0.0 | 0.0 | 0.00 | 0.00 | 0.00 | 82 | 1007.8 |
| 20260508094331 | 34 | 306 | 0.0 | 0.0 | 0.00 | 0.00 | 0.00 | 82 | 1007.8 |
| 20260508093828 | 34 | 306 | 0.0 | 0.0 | 0.00 | 0.00 | 0.00 | 81 | 1007.8 |
| 20260508092815 | 34 | 306 | 1.0 | 3.0 | 0.00 | 0.00 | 0.00 | 80 | 1007.8 |
| 20260508091303 | 34 | 277 | 0.0 | 3.0 | 0.00 | 0.00 | 0.00 | 79 | 1007.9 |
| 20260508090804 | 34 | 184 | 0.0 | 0.0 | 0.00 | 0.00 | 0.00 | 79 | 1007.8 |
| 20260508090302 | 34 | 184 | 0.0 | 0.0 | 0.00 | 0.00 | 0.00 | 79 | 1007.9 |
| 20260508085804 | 34 | 184 | 0.0 | 2.0 | 0.00 | 0.00 | 0.00 | 80 | 1007.9 |
| 20260508085301 | 34 | 184 | 1.0 | 4.0 | 0.00 | 0.00 | 0.00 | 80 | 1008.0 |
| 20260508084802 | 34 | 184 | 1.0 | 4.0 | 0.00 | 0.00 | 0.00 | 81 | 1007.9 |
| 20260508084302 | 34 | 236 | 1.0 | 2.0 | 0.00 | 0.00 | 0.00 | 82 | 1007.9 |
| 20260508083802 | 34 | 249 | 1.0 | 2.0 | 0.00 | 0.00 | 0.00 | 83 | 1007.8 |
| 20260508083302 | 35 | 338 | 0.0 | 2.0 | 0.00 | 0.00 | 0.00 | 83 | 1007.7 |
| 20260508082803 | 35 | 340 | 0.0 | 1.0 | 0.00 | 0.00 | 0.00 | 84 | 1007.6 |
| 20260508082301 | 35 | 340 | 0.0 | 2.0 | 0.00 | 0.00 | 0.00 | 84 | 1007.6 |
| 20260508081802 | 35 | 340 | 0.0 | 2.0 | 0.00 | 0.00 | 0.00 | 83 | 1007.7 |
| 20260508081302 | 35 | 340 | 0.0 | 1.0 | 0.00 | 0.00 | 0.00 | 82 | 1007.7 |
| 20260508080801 | 35 | 340 | 0.0 | 1.0 | 0.00 | 0.00 | 0.00 | 82 | 1007.7 |
| 20260508080304 | 35 | 340 | 0.0 | 1.0 | 0.00 | 0.00 | 0.00 | 82 | 1007.8 |
| 20260508075803 | 35 | 340 | 0.0 | 1.0 | 0.00 | 0.00 | 0.00 | 82 | 1007.8 |
| 20260508075308 | 35 | 340 | 0.0 | 0.0 | 0.00 | 0.00 | 0.00 | 82 | 1007.8 |
| 20260508074801 | 35 | 340 | 0.0 | 1.0 | 0.00 | 0.00 | 0.00 | 82 | 1007.9 |
| 20260508074301 | 36 | 340 | 0.0 | 1.0 | 0.00 | 0.00 | 0.00 | 82 | 1007.8 |
| 20260508073801 | 36 | 340 | 0.0 | 0.0 | 0.00 | 0.00 | 0.00 | 81 | 1007.9 |
| 20260508072802 | 36 | 340 | 0.0 | 0.0 | 0.00 | 0.00 | 0.00 | 80 | 1007.9 |
| 20260508072307 | 36 | 340 | 0.0 | 0.0 | 0.00 | 0.00 | 0.00 | 80 | 1008.0 |
| 20260508071803 | 36 | 340 | 0.0 | 0.0 | 0.00 | 0.00 | 0.00 | 80 | 1007.9 |
| 20260508071302 | 36 | 340 | 0.0 | 0.0 | 0.00 | 0.00 | 0.00 | 79 | 1008.0 |
| 20260508070802 | 37 | 340 | 0.0 | 0.0 | 0.00 | 0.00 | 0.00 | 78 | 1008.0 |
| 20260508070302 | 37 | 340 | 0.0 | 0.0 | 0.00 | 0.00 | 0.00 | 78 | 1008.1 |
| 20260508065801 | 37 | 340 | 0.0 | 0.0 | 0.00 | 0.00 | 0.00 | 77 | 1008.1 |
| 20260508065256 | 37 | 340 | 0.0 | 0.0 | 0.00 | 0.00 | 0.00 | 77 | 1008.1 |
| 20260508064749 | 37 | 340 | 0.0 | 1.0 | 0.00 | 0.00 | 0.00 | 76 | 1008.2 |
| 20260508064243 | 37 | 340 | 0.0 | 1.0 | 0.00 | 0.00 | 0.00 | 76 | 1008.3 |
| 20260508063737 | 37 | 340 | 0.0 | 1.0 | 0.00 | 0.00 | 0.00 | 76 | 1008.3 |
| 20260508062730 | 37 | 340 | 1.0 | 3.0 | 0.00 | 0.00 | 0.00 | 74 | 1008.4 |
| 20260508061732 | 36 | 338 | 1.0 | 3.0 | 0.00 | 0.00 | 0.00 | 76 | 1008.5 |
| 20260508061231 | 37 | 336 | 1.0 | 2.0 | 0.00 | 0.00 | 0.00 | 78 | 1008.5 |
| 20260508060230 | 37 | 336 | 1.0 | 3.0 | 0.00 | 0.00 | 0.00 | 79 | 1008.5 |
| 20260508055230 | 37 | 296 | 1.0 | 3.0 | 0.00 | 0.00 | 0.00 | 79 | 1008.5 |
| 20260508054730 | 38 | 247 | 0.0 | 2.0 | 0.00 | 0.00 | 0.00 | 79 | 1008.5 |
| 20260508054231 | 38 | 247 | 0.0 | 1.0 | 0.00 | 0.00 | 0.00 | 79 | 1008.5 |
| 20260508053230 | 39 | 246 | 0.0 | 0.0 | 0.00 | 0.00 | 0.00 | 78 | 1008.6 |
| 20260508052729 | 39 | 246 | 0.0 | 1.0 | 0.00 | 0.00 | 0.00 | 77 | 1008.6 |
| 20260508052230 | 39 | 246 | 0.0 | 1.0 | 0.00 | 0.00 | 0.00 | 77 | 1008.7 |
| 20260508051731 | 39 | 246 | 0.0 | 1.0 | 0.00 | 0.00 | 0.00 | 76 | 1008.6 |
| 20260508051227 | 40 | 246 | 0.0 | 1.0 | 0.00 | 0.00 | 0.00 | 76 | 1008.5 |
| 20260508050721 | 40 | 246 | 0.0 | 1.0 | 0.00 | 0.00 | 0.00 | 75 | 1008.5 |
| 20260508050221 | 40 | 246 | 0.0 | 1.0 | 0.00 | 0.00 | 0.00 | 74 | 1008.6 |
| 20260508045722 | 40 | 246 | 0.0 | 0.0 | 0.00 | 0.00 | 0.00 | 73 | 1008.6 |
| 20260508045221 | 41 | 246 | 0.0 | 0.0 | 0.00 | 0.00 | 0.00 | 72 | 1008.6 |
| 20260508044720 | 41 | 246 | 0.0 | 0.0 | 0.00 | 0.00 | 0.00 | 71 | 1008.7 |
| 20260508044221 | 41 | 246 | 0.0 | 0.0 | 0.00 | 0.00 | 0.00 | 69 | 1008.7 |
| 20260508043720 | 42 | 246 | 0.0 | 0.0 | 0.00 | 0.00 | 0.00 | 67 | 1008.7 |
| 20260508043223 | 42 | 246 | 0.0 | 0.0 | 0.00 | 0.00 | 0.00 | 64 | 1008.7 |
| 20260508042720 | 42 | 246 | 0.0 | 0.0 | 0.00 | 0.00 | 0.00 | 61 | 1008.8 |
| 20260508042216 | 43 | 246 | 0.0 | 0.0 | 0.00 | 0.00 | 0.00 | 62 | 1008.8 |
| 20260508041714 | 43 | 246 | 0.0 | 0.0 | 0.00 | 0.00 | 0.00 | 62 | 1008.7 |
| 20260508041214 | 43 | 246 | 0.0 | 0.0 | 0.00 | 0.00 | 0.00 | 61 | 1008.8 |
| 20260508040209 | 44 | 246 | 0.0 | 0.0 | 0.00 | 0.00 | 0.00 | 56 | 1008.8 |
| 20260508035707 | 44 | 246 | 0.0 | 0.0 | 0.00 | 0.00 | 0.00 | 55 | 1008.8 |
| 20260508035201 | 45 | 246 | 0.0 | 0.0 | 0.00 | 0.00 | 0.00 | 54 | 1008.8 |